Location: Aalen
(48.8330°N, 10.1000°E)
Time: 03:00:13
(UTC+01:00)

Envisat - Pass Details

Date: 09 December 2022
Orbit: 763 x 765 km, 98.2° (Epoch: 28 January)

Event Time Altitude Azimuth Distance (km) Brightness Sun altitude
Rises 04:54:35 0° 12° (NNE) 3,246 6.4 -29.5°
Reaches altitude 10° 04:56:54 10° 11° (N) 2,315 5.6 -29.1°
Enters shadow 04:58:26 20° 9° (N) 1,721 4.8 -28.9°
